User: anonymous
Location: Oshawa
(43.9000°N, 78.8670°W)
Time: 04:17:34
(UTC-04:00)
Language:

Cosmos 1821 Rocket - Orbit

View from above orbital plane
View from above orbital plane
View from above satellite
View from above satellite

Ground track
Ground track

The orbit data is extracted from the following two-line orbital elements,

1 17526U 87017B   14241.09186428  .00000157  00000-0  14395-3 0  1264
2 17526 082.9002 084.6811 0039100 297.8518 175.3946 13.76696688365576
Epoch (UTC): 29 August 2014 02:12:17
Eccentricity: 0.0039100
inclination: 82.9002°
perigee height: 947 km
apogee height: 1004 km
right ascension of ascending node: 84.6811°
argument of perigee: 297.8518°
revolutions per day: 13.76696688
mean anomaly at epoch: 175.3946°
orbit number at epoch: 36557

The dashed part of the orbit path shows where the satellite is in the earth's shadow,  

DLR